FW4751 Weather Reports


time (UTC)temp
F
wind
direction
speed
knots
gust
knots
rain 1hr
in
rain 24hr
in
rain mn
in
humidity
%
barometer
mb
20260510123505 55 315 0.9 2.6 0.00 0.00 0.00 86 1015.5
20260510123004 55 338 0.9 2.6 0.00 0.00 0.00 86 1015.6
20260510122504 55 315 1.7 3.5 0.00 0.00 0.00 86 1015.5
20260510122004 55 338 0.9 2.6 0.00 0.00 0.00 86 1015.4
20260510121504 55 338 0.9 1.7 0.00 0.00 0.00 86 1015.5
20260510121004 55 315 0.9 2.6 0.00 0.00 0.00 86 1015.5
20260510120504 55 315 0.9 1.7 0.00 0.00 0.00 86 1015.6
20260510120004 55 338 0.9 2.6 0.00 0.00 0.00 86 1015.5
20260510115504 55 315 0.9 2.6 0.00 0.00 0.00 86 1015.5
20260510115004 55 338 0.9 3.5 0.00 0.00 0.00 86 1015.6
20260510114504 55 338 0.9 2.6 0.00 0.00 0.00 86 1015.5
20260510114004 55 338 0.9 2.6 0.00 0.00 0.00 86 1015.5
20260510113505 55 338 0.9 2.6 0.00 0.00 0.00 86 1015.5
20260510113005 55 315 1.7 4.3 0.00 0.00 0.00 86 1015.6
20260510112524 55 315 0.9 3.5 0.00 0.00 0.00 86 1015.5
20260510112004 55 338 0.9 3.5 0.00 0.00 0.00 86 1015.5
20260510111504 55 315 0.9 3.5 0.00 0.00 0.00 86 1015.5
20260510111004 55 315 0.9 2.6 0.00 0.00 0.00 86 1015.6
20260510110504 55 338 0.9 2.6 0.00 0.00 0.00 87 1015.6
20260510110004 55 315 0.9 3.5 0.00 0.00 0.00 87 1015.5
20260510105504 55 315 0.9 2.6 0.00 0.00 0.00 87 1015.5
20260510105004 55 315 0.9 2.6 0.00 0.00 0.00 87 1015.5
20260510104504 55 315 0.9 2.6 0.00 0.00 0.00 87 1015.4
20260510104024 55 315 0.9 2.6 0.00 0.00 0.00 87 1015.5
20260510103504 55 338 0.9 2.6 0.00 0.00 0.00 87 1015.5
20260510103004 55 315 0.9 3.5 0.00 0.00 0.00 87 1015.5
20260510102505 55 315 0.9 1.7 0.00 0.00 0.00 88 1015.6
20260510102004 55 315 0.9 2.6 0.00 0.00 0.00 88 1015.6
20260510101525 55 315 0.9 2.6 0.00 0.00 0.00 88 1015.6
20260510101004 55 338 0.9 3.5 0.00 0.00 0.00 88 1015.6
20260510100504 55 315 0.9 2.6 0.00 0.00 0.00 89 1015.6
20260510100004 55 315 0.9 2.6 0.00 0.00 0.00 89 1015.5
20260510095504 55 338 0.9 3.5 0.00 0.00 0.00 89 1015.5
20260510095004 55 315 0.9 2.6 0.00 0.00 0.00 89 1015.5
20260510094504 54 315 0.9 2.6 0.00 0.00 0.00 89 1015.5
20260510094004 54 45 0.9 2.6 0.00 0.00 0.00 90 1015.5
20260510093504 54 0 0.9 2.6 0.00 0.00 0.00 90 1015.5
20260510093004 54 315 0.9 1.7 0.00 0.00 0.00 90 1015.6
20260510092504 54 293 0.9 1.7 0.00 0.00 0.00 90 1015.5
20260510092004 54 0.0 1.7 0.00 0.00 0.00 90 1015.6
20260510091504 54 315 0.9 1.7 0.00 0.00 0.00 90 1015.6
20260510091044 54 315 0.9 1.7 0.00 0.00 0.00 90 1015.5
20260510090504 53 0 0.9 1.7 0.00 0.00 0.00 90 1015.5
20260510090004 53 338 0.9 1.7 0.00 0.00 0.00 89 1015.5
20260510085504 53 338 0.9 1.7 0.00 0.00 0.00 89 1015.5
20260510085004 53 0.0 1.7 0.00 0.00 0.00 89 1015.6
20260510084504 53 338 0.9 1.7 0.00 0.00 0.00 88 1015.5
20260510084004 52 0.0 1.7 0.00 0.00 0.00 88 1015.5
20260510083504 52 0.0 0.9 0.00 0.00 0.00 88 1015.6
20260510083004 52 315 0.9 1.7 0.00 0.00 0.00 88 1015.5
20260510082504 52 315 0.9 1.7 0.00 0.00 0.00 87 1015.5
20260510082004 52 0.0 0.9 0.00 0.00 0.00 87 1015.4
20260510081503 52 0.0 0.9 0.00 0.00 0.00 86 1015.5
20260510081024 52 0.0 1.7 0.00 0.00 0.00 86 1015.4
20260510080524 53 0.0 0.9 0.00 0.00 0.00 86 1015.5
20260510080004 53 0.0 0.9 0.00 0.00 0.00 86 1015.5
20260510075624 53 0.0 0.9 0.00 0.00 0.00 86 1015.5
20260510075024 53 0.0 0.9 0.00 0.00 0.00 86 1015.6
20260510074503 53 0.0 0.9 0.00 0.00 0.00 85 1015.6
20260510074004 53 0.0 0.9 0.00 0.00 0.00 85 1015.5
20260510073504 53 0.0 0.9 0.00 0.00 0.00 85 1015.6
20260510073004 54 0.0 0.9 0.00 0.00 0.00 85 1015.5
20260510072504 54 0.0 0.9 0.00 0.00 0.00 85 1015.6
20260510072004 54 0.0 0.9 0.00 0.00 0.00 84 1015.5
20260510071504 54 0.0 0.9 0.00 0.00 0.00 84 1015.6
20260510071005 54 0.0 0.9 0.00 0.00 0.00 84 1015.6
20260510070544 54 0.0 0.9 0.00 0.00 0.00 84 1015.6
20260510070005 54 0.0 0.9 0.00 0.00 0.00 84 1015.6
20260510065504 55 0.0 0.9 0.00 0.00 0.00 84 1015.6
20260510065004 55 0.0 0.9 0.00 0.00 0.00 84 1015.5
20260510064504 55 0.0 0.9 0.00 0.00 0.00 84 1015.5
20260510064004 55 0.0 0.9 0.00 0.00 0.00 84 1015.6
20260510063504 55 0.0 0.9 0.00 0.00 0.00 84 1015.5
20260510063004 55 0.0 0.9 0.00 0.00 0.00 84 1015.6
20260510062504 55 0 0.9 0.9 0.00 0.00 0.00 84 1015.5
20260510062004 56 0.0 0.9 0.00 0.00 0.00 84 1015.6
20260510061504 56 0.0 1.7 0.00 0.00 0.00 83 1015.5
20260510061003 56 0.0 1.7 0.00 0.00 0.00 83 1015.5
20260510060504 56 0.0 1.7 0.00 0.00 0.00 83 1015.6
20260510060004 56 0.0 0.9 0.00 0.00 0.00 83 1015.5
20260510055544 56 0.0 0.9 0.00 0.00 0.00 83 1015.5
20260510055004 56 0.0 1.7 0.00 0.00 0.00 83 1015.5
20260510054504 56 0.0 1.7 0.00 0.00 0.00 83 1015.6
20260510054003 56 45 0.9 1.7 0.00 0.00 0.00 83 1015.6
20260510053503 57 45 0.9 2.6 0.00 0.00 0.00 82 1015.6
20260510053004 57 45 0.9 2.6 0.00 0.00 0.00 82 1015.6
20260510052503 57 0 0.9 1.7 0.00 0.00 0.00 82 1015.6
20260510052105 57 45 0.9 2.6 0.00 0.00 0.00 82 1015.6
20260510051504 57 45 0.9 2.6 0.00 0.00 0.00 81 1015.5
20260510051004 57 45 0.9 2.6 0.00 0.00 0.00 81 1015.5
20260510050503 57 45 0.9 3.5 0.00 0.00 0.00 81 1015.5
20260510050004 57 23 0.9 2.6 0.00 0.00 0.00 80 1015.5
20260510045504 57 45 0.9 2.6 0.00 0.00 0.00 80 1015.5
20260510045004 58 45 0.9 2.6 0.00 0.00 0.00 80 1015.4
20260510044503 58 45 0.9 3.5 0.00 0.00 0.00 80 1015.4
20260510044003 58 45 1.7 4.3 0.00 0.00 0.00 79 1015.3
20260510043503 58 45 1.7 3.5 0.00 0.00 0.00 79 1015.3
20260510043003 58 45 1.7 4.3 0.00 0.00 0.00 79 1015.2
20260510042523 58 45 1.7 4.3 0.00 0.00 0.00 78 1015.3
20260510042003 58 45 0.9 2.6 0.00 0.00 0.00 78 1015.2
20260510041504 58 45 0.9 2.6 0.00 0.00 0.00 78 1015.2
20260510041003 59 45 0.9 2.6 0.00 0.00 0.00 78 1015.1
20260510040504 59 45 0.9 2.6 0.00 0.00 0.00 77 1015.0
20260510040003 59 45 0.9 2.6 0.00 0.00 0.00 77 1015.0
20260510035503 59 45 0.9 2.6 0.00 0.00 0.00 76 1015.1
20260510035024 59 45 0.9 3.5 0.00 0.00 0.00 76 1015.0
20260510034523 59 45 0.9 3.5 0.00 0.00 0.00 76 1015.0
20260510034003 60 68 0.9 2.6 0.00 0.00 0.00 75 1014.9
20260510033503 60 68 1.7 4.3 0.00 0.00 0.00 75 1014.9
20260510033024 60 68 0.9 4.3 0.00 0.00 0.00 74 1014.9
20260510032503 60 68 0.9 2.6 0.00 0.00 0.00 74 1014.8
20260510032003 60 45 1.7 3.5 0.00 0.00 0.00 73 1014.6
20260510031503 61 45 1.7 4.3 0.00 0.00 0.00 73 1014.5
20260510031003 61 45 0.9 3.5 0.00 0.00 0.00 72 1014.5
20260510030503 61 45 0.9 2.6 0.00 0.00 0.00 72 1014.5
20260510030003 61 45 0.9 3.5 0.00 0.00 0.00 72 1014.4
20260510025503 62 45 0.9 3.5 0.00 0.00 0.00 71 1014.3
20260510025003 62 45 0.9 2.6 0.00 0.00 0.00 71 1014.2
20260510024503 62 45 1.7 3.5 0.00 0.00 0.00 71 1014.2
20260510024003 62 45 1.7 2.6 0.00 0.00 0.00 70 1014.3
20260510023503 63 45 1.7 4.3 0.00 0.00 0.00 70 1014.2
20260510023003 63 45 1.7 4.3 0.00 0.00 0.00 69 1014.1
20260510022503 63 68 0.9 5.2 0.00 0.00 0.00 69 1014.1
20260510022003 63 338 1.7 5.2 0.00 0.00 0.00 68 1014.0
20260510021503 63 45 1.7 5.2 0.00 0.00 0.00 68 1014.2
20260510021023 64 338 2.6 8.7 0.00 0.00 0.00 67 1014.1
20260510020503 64 45 2.6 7.8 0.00 0.00 0.00 67 1014.0
20260510020003 65 45 2.6 7.0 0.00 0.00 0.00 66 1014.2
20260510015503 65 45 2.6 6.1 0.00 0.00 0.00 66 1014.0
20260510015003 65 338 2.6 7.0 0.00 0.00 0.00 65 1014.1
20260510014644 66 45 1.7 4.3 0.00 0.00 0.00 66 1014.1
20260510014003 66 45 2.6 7.0 0.00 0.00 0.00 66 1014.0
20260510013503 66 45 2.6 7.8 0.00 0.00 0.00 65 1014.1
20260510013003 66 45 2.6 7.0 0.00 0.00 0.00 65 1013.9
20260510012503 66 338 3.5 7.0 0.00 0.00 0.00 64 1014.1
20260510012003 67 0 3.5 7.8 0.00 0.00 0.00 63 1014.0
20260510011503 67 45 3.5 7.0 0.00 0.00 0.00 63 1014.0
20260510011003 68 0 2.6 7.0 0.00 0.00 0.00 63 1014.0
20260510010503 68 45 2.6 7.8 0.00 0.00 0.00 62 1013.9
20260510010004 68 338 3.5 7.0 0.00 0.00 0.00 62 1014.0
20260510005504 69 338 2.6 6.1 0.00 0.00 0.00 61 1013.9
20260510005005 69 45 1.7 7.8 0.00 0.00 0.00 61 1013.9
20260510004505 69 338 2.6 7.8 0.00 0.00 0.00 61 1013.9
20260510004025 69 45 2.6 6.1 0.00 0.00 0.00 61 1013.9
20260510003505 69 45 2.6 6.1 0.00 0.00 0.00 61 1013.9
20260510003005 69 0 3.5 7.0 0.00 0.00 0.00 60 1013.9
20260510002504 69 68 2.6 5.2 0.00 0.00 0.00 60 1013.9
20260510002010 69 45 3.5 7.0 0.00 0.00 0.00 61 1013.8
20260510001504 69 45 2.6 7.0 0.00 0.00 0.00 61 1013.9
20260510001005 69 45 2.6 7.0 0.00 0.00 0.00 61 1013.9
20260510000525 70 45 3.5 7.8 0.00 0.00 0.00 61 1013.9
20260510000005 70 338 2.6 7.8 0.00 0.00 0.00 60 1014.0
20260509235505 70 338 2.6 6.1 0.00 0.00 0.00 61 1014.0
20260509235005 70 338 3.5 7.8 0.00 0.00 0.00 60 1013.9
20260509234505 70 338 2.6 7.0 0.00 0.00 0.00 61 1014.1
20260509234024 70 45 2.6 6.1 0.00 0.00 0.00 61 1014.0
20260509233505 70 0 4.3 9.6 0.00 0.00 0.00 60 1013.9
20260509233024 71 338 3.5 8.7 0.00 0.00 0.00 59 1013.9
20260509232505 70 45 3.5 7.8 0.00 0.00 0.00 60 1013.8
20260509232046 71 45 4.3 8.7 0.00 0.00 0.00 58 1013.9
20260509231505 72 338 3.5 9.6 0.00 0.00 0.00 57 1013.9
20260509231005 72 338 2.6 9.6 0.00 0.00 0.00 57 1013.9
20260509230504 72 338 2.6 8.7 0.00 0.00 0.00 57 1013.9
20260509230004 71 338 2.6 7.8 0.00 0.00 0.00 59 1014.0
20260509225504 71 338 3.5 9.6 0.00 0.00 0.00 58 1014.2
20260509225004 72 0 4.3 7.8 0.00 0.00 0.00 57 1014.2
20260509224505 72 338 3.5 11.3 0.00 0.00 0.00 56 1014.2
20260509224105 73 45 2.6 7.8 0.00 0.00 0.00 56 1014.3
20260509223504 73 338 3.5 8.7 0.00 0.00 0.00 55 1014.6
20260509223005 74 45 3.5 8.7 0.00 0.00 0.00 55 1014.4
20260509222524 74 45 2.6 7.8 0.00 0.00 0.00 54 1014.5
20260509222024 74 45 1.7 5.2 0.00 0.00 0.00 55 1014.5
20260509221524 74 338 2.6 7.8 0.00 0.00 0.00 55 1014.6
20260509221004 73 315 2.6 6.1 0.00 0.00 0.00 56 1014.6
20260509220504 73 338 2.6 7.8 0.00 0.00 0.00 57 1014.6
20260509220005 73 315 2.6 7.8 0.00 0.00 0.00 57 1014.7
20260509215526 72 338 1.7 8.7 0.00 0.00 0.00 59 1014.7
20260509215004 72 45 4.3 11.3 0.00 0.00 0.00 60 1014.7
20260509214504 72 45 3.5 7.8 0.00 0.00 0.00 62 1014.7
20260509214005 72 45 3.5 7.8 0.00 0.00 0.00 63 1014.7
20260509213505 71 338 4.3 8.7 0.00 0.00 0.00 62 1014.8
20260509213005 71 45 4.3 9.6 0.00 0.00 0.00 62 1014.8
20260509212504 71 45 3.5 8.7 0.00 0.00 0.00 63 1014.8
20260509212024 71 45 3.5 9.6 0.00 0.00 0.00 64 1014.9
20260509211524 71 45 4.3 8.7 0.00 0.00 0.00 65 1015.0
20260509211004 71 45 3.5 9.6 0.00 0.00 0.00 65 1015.1
20260509210525 71 45 3.5 7.0 0.00 0.00 0.00 65 1015.2
20260509210004 71 45 3.5 8.7 0.00 0.00 0.00 66 1015.2
20260509205504 70 45 3.5 7.8 0.00 0.00 0.00 66 1015.1
20260509205024 70 45 2.6 7.0 0.00 0.00 0.00 66 1015.3
20260509204504 69 45 3.5 7.0 0.00 0.00 0.00 67 1015.3
20260509204004 69 45 3.5 7.8 0.00 0.00 0.00 67 1015.3
20260509203524 69 45 3.5 8.7 0.00 0.00 0.00 67 1015.4
20260509203004 69 45 2.6 6.1 0.00 0.00 0.00 67 1015.4
20260509202504 69 45 3.5 7.0 0.00 0.00 0.00 68 1015.4
20260509202004 69 45 2.6 7.8 0.00 0.00 0.00 68 1015.5
20260509201504 69 45 2.6 6.1 0.00 0.00 0.00 68 1015.5
20260509201024 69 68 2.6 5.2 0.00 0.00 0.00 69 1015.5
20260509200504 68 68 2.6 6.1 0.00 0.00 0.00 70 1015.7
20260509200004 68 68 2.6 6.1 0.00 0.00 0.00 70 1015.8
20260509195504 68 45 2.6 7.0 0.00 0.00 0.00 70 1015.8
20260509195024 67 68 2.6 6.1 0.00 0.00 0.00 70 1015.8
20260509194504 67 68 2.6 6.1 0.00 0.00 0.00 71 1015.7
20260509194004 67 45 3.5 7.0 0.00 0.00 0.00 71 1015.8
20260509193504 67 68 2.6 5.2 0.00 0.00 0.00 72 1015.7
20260509193004 67 45 2.6 4.3 0.00 0.00 0.00 72 1015.9
20260509192544 67 45 2.6 6.1 0.00 0.00 0.00 72 1015.9
20260509192004 67 45 3.5 7.8 0.00 0.00 0.00 71 1016.0
20260509191524 67 45 2.6 5.2 0.00 0.00 0.00 71 1016.0
20260509191004 66 45 2.6 5.2 0.00 0.00 0.00 71 1016.1
20260509190504 66 45 2.6 5.2 0.00 0.00 0.00 71 1016.1
20260509190024 66 68 1.7 5.2 0.00 0.00 0.00 71 1016.2
20260509185524 66 45 2.6 5.2 0.00 0.00 0.00 70 1016.1
20260509185004 66 45 2.6 6.1 0.00 0.00 0.00 70 1016.1
20260509184525 67 68 2.6 5.2 0.00 0.00 0.00 69 1016.2
20260509184004 68 45 2.6 6.1 0.00 0.00 0.00 66 1016.3
20260509183504 68 45 2.6 5.2 0.00 0.00 0.00 65 1016.3
20260509183024 69 45 1.7 5.2 0.00 0.00 0.00 65 1016.2
20260509182504 69 45 1.7 4.3 0.00 0.00 0.00 67 1016.2
20260509182003 68 68 0.9 4.3 0.00 0.00 0.00 68 1016.1
20260509181504 68 113 1.7 3.5 0.00 0.00 0.00 68 1016.2
20260509181004 67 135 0.9 2.6 0.00 0.00 0.00 68 1016.2
20260509180504 67 90 0.9 3.5 0.00 0.00 0.00 69 1016.3
20260509180004 66 45 0.9 3.5 0.00 0.00 0.00 69 1016.2
20260509175504 65 45 0.9 2.6 0.00 0.00 0.00 71 1016.3
20260509175004 65 45 1.7 3.5 0.00 0.00 0.00 70 1016.3
20260509174504 65 113 1.7 3.5 0.00 0.00 0.00 70 1016.4
20260509174004 65 68 1.7 3.5 0.00 0.00 0.00 70 1016.5
20260509173504 65 68 0.9 3.5 0.00 0.00 0.00 70 1016.6
20260509173004 65 45 1.7 3.5 0.00 0.00 0.00 70 1016.5
20260509172504 65 113 1.7 3.5 0.00 0.00 0.00 70 1016.5
20260509172004 65 68 1.7 3.5 0.00 0.00 0.00 70 1016.5
20260509171524 65 68 1.7 4.3 0.00 0.00 0.00 71 1016.4
20260509171024 64 68 0.9 2.6 0.00 0.00 0.00 72 1016.4
20260509170504 64 68 0.9 3.5 0.00 0.00 0.00 72 1016.4
20260509170024 64 135 0.9 2.6 0.00 0.00 0.00 72 1016.4
20260509165524 64 45 1.7 4.3 0.00 0.00 0.00 72 1016.4
20260509165004 64 68 1.7 3.5 0.00 0.00 0.00 71 1016.4
20260509164504 64 113 1.7 4.3 0.00 0.00 0.00 73 1016.5
20260509164004 63 113 0.9 1.7 0.00 0.00 0.00 74 1016.5
20260509163524 63 90 0.9 2.6 0.00 0.00 0.00 73 1016.5
20260509163004 63 68 0.9 2.6 0.00 0.00 0.00 73 1016.6
20260509162524 63 68 0.9 2.6 0.00 0.00 0.00 73 1016.5
20260509162004 63 315 0.9 2.6 0.00 0.00 0.00 73 1016.5
20260509161504 62 113 0.9 2.6 0.00 0.00 0.00 74 1016.6
20260509161004 62 113 0.9 1.7 0.00 0.00 0.00 75 1016.5
20260509160504 61 45 0.9 1.7 0.00 0.00 0.00 77 1016.6
20260509160004 60 248 0.9 1.7 0.00 0.00 0.00 78 1016.6
20260509155504 59 180 0.9 1.7 0.00 0.00 0.00 79 1016.6
20260509155004 58 113 0.9 1.7 0.00 0.00 0.00 81 1016.6
20260509154504 58 135 0.9 1.7 0.00 0.00 0.00 81 1016.6
20260509154004 58 135 0.9 1.7 0.00 0.00 0.00 81 1016.6
20260509153524 58 180 0.9 1.7 0.00 0.00 0.00 81 1016.7
20260509153004 58 180 0.9 1.7 0.00 0.00 0.00 82 1016.6
20260509152503 58 225 0.9 1.7 0.00 0.00 0.00 83 1016.6
20260509152024 57 158 0.9 2.6 0.00 0.00 0.00 83 1016.6
20260509151504 57 158 0.9 1.7 0.00 0.00 0.00 84 1016.6
20260509151004 57 158 0.9 2.6 0.00 0.00 0.00 84 1016.6
20260509150503 56 225 0.9 1.7 0.00 0.00 0.00 85 1016.7
20260509150044 56 203 0.9 2.6 0.00 0.00 0.00 86 1016.5
20260509145504 56 203 0.9 2.6 0.00 0.00 0.00 87 1016.7
20260509145004 56 180 0.9 1.7 0.00 0.00 0.00 88 1016.6
20260509144504 56 135 0.9 2.6 0.00 0.00 0.00 88 1016.6
20260509144004 55 203 0.9 1.7 0.00 0.00 0.00 88 1016.6
20260509143524 55 180 0.9 2.6 0.00 0.00 0.00 89 1016.4
20260509143003 55 158 0.9 1.7 0.00 0.00 0.00 89 1016.6
20260509142504 55 225 0.9 1.7 0.00 0.00 0.00 89 1016.5
20260509142004 55 203 0.9 2.6 0.00 0.00 0.00 89 1016.6
20260509141504 55 203 0.9 2.6 0.00 0.00 0.00 89 1016.6
20260509141004 55 0.0 1.7 0.00 0.00 0.00 89 1016.5
20260509140503 54 0.0 1.7 0.00 0.00 0.00 89 1016.5
20260509140005 54 203 0.9 1.7 0.00 0.00 0.00 90 1016.4
20260509135503 54 0.0 1.7 0.00 0.00 0.00 90 1016.3
20260509135004 54 135 0.9 1.7 0.00 0.00 0.00 90 1016.2
20260509134503 54 0.0 0.9 0.00 0.00 0.00 90 1016.2
20260509134003 54 203 0.9 1.7 0.00 0.00 0.00 90 1016.3
20260509133503 54 0.0 1.7 0.00 0.00 0.00 90 1016.3
20260509133004 54 203 0.9 2.6 0.00 0.00 0.00 90 1016.1
20260509132524 54 0.0 1.7 0.00 0.00 0.00 90 1016.2
20260509132004 54 0.0 0.9 0.00 0.00 0.00 90 1016.1
20260509131503 54 135 0.9 1.7 0.00 0.00 0.00 90 1016.1
20260509131003 54 0.0 1.7 0.00 0.00 0.00 90 1016.1
20260509130504 54 0.0 0.9 0.00 0.00 0.00 90 1016.1
20260509130003 54 0.0 1.7 0.00 0.00 0.00 90 1016.2
20260509125543 54 0.0 1.7 0.00 0.00 0.00 90 1016.1
20260509125003 54 0.0 0.9 0.00 0.00 0.00 90 1016.1
20260509124504 54 0.0 0.9 0.00 0.00 0.00 90 1016.2
20260509124004 54 180 0.9 1.7 0.00 0.00 0.00 90 1016.1